DELTA 1 DEB, 40763

Orbit data source: Space-Track

DELTA 1 DEB, 40763 is space debris in SSO originally from a launch on Thu, 29 Jul 1976 UTC launched from the Air Force Western Test Range (AFWTR). Debris objects in space refer to the collection of defunct objects orbiting the Earth. Examples of debris include non-operational satellites, rocket bodies, and fragments generated from explosions, collisions, or faulty payload assembly.

Loading next visibility...
Identifier
40763, 1976-077GG
Orbit
SSO
Country
Flag of USUS
Related business
Manufacturer
Unknown
Mission
Spacecraft
Bus & Motor
Unknown
Mass
Unknown
Launch date (UTC)
1976-07-29 (50 years ago)
Launch vehicle
Unknown
Launch site
Air Force Western Test Range (AFWTR)
Object type
Payload
Rocket body
Debris
Shape & HBR
Unknown shape, 0.1 m
Radar Cross Section
Small (<0.1 m²)

Expand to show TLE details & history
Last TLE update: 1 week ago

TLE from 1 week ago
0 DELTA 1 DEB
1 40763U 76077GG  26111.15966403  .00000320  00000-0  21231-2 0  9998
2 40763 101.5711  91.1153 0027511 315.4680  44.4186 12.59204564 84941
Epoch: 2026-04-21T03:49Z
TLE epoch observation values (Epoch: 2026-04-21T03:49:54.972Z)
Latitude
0.00003°
Longitude
-175.6032°
Altitude
1,413.513 km
Speed
7.161 km/s
True Right ascension
06h 04m 27s
True Declination
0° 00' 00"
Sunlit
Object was in daylight at epoch
Visualization orbit readout
Latitude
Unknown
Longitude
Unknown
Altitude
Unknown
Speed
Unknown
Apparent Right ascension
Unknown
Apparent Declination
Unknown
Sunlit
N/A
Visualization observer readout
Local Sidereal Time
16:44:26
Azimuth
Unknown
Elevation
Unknown
Doppler factor
Unknown
Orbital elements
Apogee altitude
1,445.217 km
Perigee altitude
1,402.29 km
Semi-major axis
7,801.891 km
Eccentricity
0.00275
Inclination
101.5711°
RAAN
91.1153°
Arg. of periapsis
315.468°
True anomaly
44.63979°
Mean anomaly
44.4186°
Eccentric anomaly
44.52914°
Mean motion
3.14951 °/min
Orbital period
114.3 mins
BSTAR
0.0021231
Loading maneuver chart data...
Computing Atmospheric mass density...
Loading historical data...
Loading historical data...
Loading historical data...
Loading historical data...
Loading historical data...
Loading historical data...
Loading historical data...

Documentation

Showing up to 5 results
|